TimePST,TemperatureF,Dew PointF,Humidity,Sea Level PressureIn,VisibilityMPH,Wind Direction,Wind SpeedMPH,Gust SpeedMPH,PrecipitationIn,Events,Conditions,WindDirDegrees,DateUTC
12:54 AM,50.0,46.9,89,30.24,10.0,ESE,3.5,-,N/A,,Clear,120,2012-12-04 08:54:00
1:54 AM,48.9,48.0,97,30.24,10.0,ESE,3.5,-,N/A,,Clear,110,2012-12-04 09:54:00
2:54 AM,50.0,46.0,86,30.25,10.0,East,6.9,-,N/A,,Clear,90,2012-12-04 10:54:00
3:54 AM,48.9,46.0,90,30.26,10.0,Calm,Calm,-,N/A,,Clear,0,2012-12-04 11:54:00
4:54 AM,48.9,46.0,90,30.25,10.0,East,9.2,-,N/A,,Clear,100,2012-12-04 12:54:00
5:54 AM,48.9,46.9,93,30.25,10.0,East,5.8,-,N/A,,Clear,90,2012-12-04 13:54:00
6:54 AM,48.9,46.0,90,30.26,10.0,SE,3.5,-,N/A,,Clear,130,2012-12-04 14:54:00
7:54 AM,48.9,46.0,90,30.27,10.0,ESE,4.6,-,N/A,,Clear,110,2012-12-04 15:54:00
8:54 AM,52.0,48.0,86,30.28,10.0,Calm,Calm,-,N/A,,Clear,0,2012-12-04 16:54:00
9:54 AM,57.0,51.1,81,30.31,10.0,SW,6.9,-,N/A,,Clear,230,2012-12-04 17:54:00
10:54 AM,59.0,51.1,75,30.30,10.0,WSW,3.5,-,N/A,,Clear,240,2012-12-04 18:54:00
11:54 AM,59.0,51.1,75,30.27,10.0,NW,5.8,-,N/A,,Clear,310,2012-12-04 19:54:00
12:54 PM,59.0,51.1,75,30.26,10.0,West,4.6,-,N/A,,Clear,280,2012-12-04 20:54:00
1:54 PM,59.0,52.0,78,30.25,10.0,North,-9999.0,-,N/A,,Clear,0,2012-12-04 21:54:00
2:54 PM,59.0,52.0,78,30.24,10.0,WNW,5.8,-,N/A,,Scattered Clouds,300,2012-12-04 22:54:00
3:26 PM,59.0,51.8,77,30.22,10.0,WSW,5.8,-,N/A,,Mostly Cloudy,240,2012-12-04 23:26:00
3:35 PM,59.0,53.6,82,30.22,10.0,North,-9999.0,-,N/A,,Scattered Clouds,0,2012-12-04 23:35:00
3:54 PM,57.9,53.1,84,30.26,10.0,South,4.6,-,N/A,,Clear,190,2012-12-04 23:54:00
4:54 PM,57.9,52.0,81,30.25,10.0,Calm,Calm,-,N/A,,Clear,0,2012-12-05 00:54:00
5:54 PM,57.0,52.0,83,30.27,10.0,ESE,3.5,-,N/A,,Mostly Cloudy,110,2012-12-05 01:54:00
6:54 PM,57.0,52.0,83,30.26,10.0,East,4.6,-,N/A,,Overcast,80,2012-12-05 02:54:00
7:54 PM,57.0,52.0,83,30.27,10.0,Calm,Calm,-,N/A,,Overcast,0,2012-12-05 03:54:00
8:54 PM,57.0,52.0,83,30.26,10.0,Calm,Calm,-,N/A,,Mostly Cloudy,0,2012-12-05 04:54:00
9:33 PM,57.2,53.6,88,30.22,10.0,Calm,Calm,-,N/A,,Overcast,0,2012-12-05 05:33:00
9:54 PM,55.0,51.1,86,30.26,10.0,Calm,Calm,-,N/A,,Mostly Cloudy,0,2012-12-05 05:54:00
10:54 PM,55.9,52.0,87,30.26,10.0,Calm,Calm,-,N/A,,Overcast,0,2012-12-05 06:54:00
11:41 PM,55.4,51.8,88,30.21,10.0,Calm,Calm,-,N/A,,Scattered Clouds,0,2012-12-05 07:41:00
11:54 PM,55.0,52.0,89,30.25,10.0,Calm,Calm,-,N/A,,Mostly Cloudy,0,2012-12-05 07:54:00